Tracking 29510 objects as of 17-Sep-2024
HD Live streaming from Space Station
objects crossing your sky now

FENGYUN 1C DEB

Track FENGYUN 1C DEB now!
10-day predictions


NORAD ID: 41828
Int'l Code: 1999-025EYF
Perigee: 757.4 km
Apogee: 829.1 km
Inclination: 98.9 °
Period: 100.6 minutes
Semi major axis: 7164 km
RCS: Unknown
Launch date: May 10, 1999
Source: People's Republic of China (PRC)
Launch site: Taiyaun Space Center, China (TSC)

Note: This is SATELLITE DEBRIS
Your satellite tracking list
Your tracking list is empty




NASA's NSSDC Master Catalog

Two Line Element Set (TLE):
1 41828U 99025EYF 24260.74357996  .00022272  00000-0  82274-2 0  9992
2 41828  98.9258   2.0308 0050046  76.3974 284.2775 14.31690863409470
Source of the keplerian elements: AFSPC